DateTimeUTC,F1_A11,F1_S11,BsB_S11,BsG_S11,BsR_S11,BbsB_S11,BbsG_S11,BbsR_S11,BaB_A11,BaG_A11,BaR_A11,Tu_S11,T_S11,Uu_S11,U_S11,P_S11,T1_A11
2021-11-12T23:00:00Z,00000200,21000000,,,,,,,-000.41,0000.00,-000.01,13.5,20.4,,00.0,0644.7,30.4
2021-11-12T23:01:00Z,00000200,21000000,,,,,,,0000.03,-000.23,0000.14,13.5,20.5,,00.0,0644.7,30.4
2021-11-12T23:02:00Z,00000200,21000000,,,,,,,-000.30,0000.10,-000.23,13.5,20.5,,00.0,0644.7,30.4
2021-11-12T23:03:00Z,00000200,61000000,,,,,,,0000.30,-000.22,-000.18,13.5,20.5,,00.0,0644.7,30.4
2021-11-12T23:04:00Z,00000200,41000000,0001.09,0000.62,0000.52,0000.68,0000.25,-000.03,0000.24,0000.53,0000.64,13.7,20.3,,00.0,0645.7,30.4
2021-11-12T23:05:00Z,00000200,01000000,0001.01,0000.72,0000.21,-000.18,0000.27,0000.34,0000.52,0000.57,0000.16,13.8,20.2,,00.0,0645.7,30.4
2021-11-12T23:06:00Z,00000200,01000000,0000.79,0001.10,0000.45,-000.19,0000.24,0000.19,0000.31,-000.03,0000.32,13.8,20.2,,00.0,0645.7,30.4
2021-11-12T23:07:00Z,00000200,01000000,0000.36,0000.54,0000.79,0000.08,0000.18,0000.44,0000.70,0000.81,0000.50,13.8,20.2,,00.0,0645.7,30.5
2021-11-12T23:08:00Z,00000200,01000000,0000.73,0000.56,0000.30,-000.15,0000.04,0000.05,0000.45,0000.50,0000.22,13.8,20.2,,00.0,0645.6,30.5
2021-11-12T23:09:00Z,00000200,01000000,0001.07,0000.51,0000.61,0000.80,0000.16,0000.16,0000.73,0000.70,0000.35,13.8,20.2,,00.0,0645.7,30.4
2021-11-12T23:10:00Z,00000200,01000000,0000.94,0000.81,0000.53,0000.33,0000.32,0000.29,0000.82,0000.50,0000.82,13.8,20.1,,00.0,0645.7,30.4
2021-11-12T23:11:00Z,00000200,01000000,0001.25,0000.81,0000.44,0000.36,-000.01,0000.07,0000.65,0000.29,0000.23,13.8,20.2,,00.0,0645.7,30.4
2021-11-12T23:12:00Z,00000200,01000000,0000.88,0001.06,0000.47,-000.14,0000.06,-000.01,0000.28,0000.78,0000.48,13.8,20.2,,00.0,0645.7,30.4
2021-11-12T23:13:00Z,00000200,01000000,0000.87,0000.73,0000.49,-000.19,0000.31,-000.12,0001.04,0000.36,0000.68,13.8,20.2,,00.0,0645.7,30.4
2021-11-12T23:14:00Z,00000200,01000000,0000.31,0000.76,0000.79,-000.15,0000.01,0000.07,0000.55,0000.88,0000.27,13.8,20.2,,00.0,0645.7,30.5
2021-11-12T23:15:00Z,00000200,01000000,0000.71,0001.06,0000.32,-000.10,0000.38,0000.15,0000.54,0000.35,0000.47,13.8,20.2,,00.0,0645.7,30.5
2021-11-12T23:16:00Z,00000200,01000000,0000.72,0001.10,0000.52,0000.24,0000.22,0000.09,0000.62,0000.92,0000.41,13.9,20.2,,00.0,0645.7,30.5
2021-11-12T23:17:00Z,00000200,01000000,0001.78,0000.82,0000.49,0000.41,0000.10,0000.03,0001.01,0000.46,0000.23,13.9,20.2,,00.0,0645.7,30.5
2021-11-12T23:18:00Z,00000200,01000000,0001.23,0000.73,0000.51,0000.17,0000.16,0000.20,0000.24,0000.51,0000.38,13.9,20.2,,00.0,0645.7,30.5
2021-11-12T23:19:00Z,00000200,01000000,0001.03,0000.68,0000.22,0000.36,-000.11,0000.05,0000.94,0000.82,0000.79,13.8,20.2,,00.0,0645.7,30.5
2021-11-12T23:20:00Z,00000200,01000000,0001.03,0001.08,0000.79,0000.17,0000.35,0000.35,0001.02,0000.90,0000.57,13.9,20.2,,00.0,0645.7,30.5
2021-11-12T23:21:00Z,00000200,01000000,0001.09,0001.03,0000.41,0001.13,0000.10,0000.15,0000.49,0000.26,0000.60,13.9,20.2,,00.0,0645.7,30.5
2021-11-12T23:22:00Z,00000200,01000000,0001.44,0000.96,0000.27,-000.06,0000.41,-000.02,0000.88,0000.67,0000.16,13.9,20.2,,00.0,0645.6,30.5
2021-11-12T23:23:00Z,00000200,01000000,0001.43,0000.89,0000.61,0000.09,0000.46,0000.29,0000.74,0001.05,0000.93,13.9,20.2,,00.0,0645.7,30.5
2021-11-12T23:24:00Z,00000200,01000000,0001.35,0000.83,0000.52,-000.25,0000.65,0000.19,0000.76,0000.44,0000.24,13.9,20.2,,00.0,0645.6,30.5
2021-11-12T23:25:00Z,00000200,01000000,0001.40,0001.32,0000.55,0000.51,0000.05,0000.37,0000.89,0000.87,0000.64,13.9,20.2,,00.0,0645.6,30.5
2021-11-12T23:26:00Z,00000200,01000000,0002.25,0000.98,0000.75,-000.21,0000.10,0000.30,0000.71,0000.97,0000.89,13.9,20.2,,00.0,0645.6,30.5
2021-11-12T23:27:00Z,00000200,01000000,0001.55,0001.02,0000.87,0000.11,0000.51,0000.25,0000.93,0000.58,0000.07,13.9,20.2,,00.0,0645.6,30.5
2021-11-12T23:28:00Z,00000200,01000000,0002.03,0001.02,0000.65,-000.33,-000.01,0000.24,0000.94,0000.80,0000.82,13.9,20.2,,00.0,0645.6,30.5
2021-11-12T23:29:00Z,00000200,01000000,0001.23,0001.09,0000.67,0000.22,0000.30,-000.13,0001.01,0001.06,0000.61,14.0,20.2,,00.0,0645.6,30.5
2021-11-12T23:30:00Z,00000200,01000000,0001.02,0001.10,0000.52,0000.15,0000.22,-000.05,0000.73,0000.78,0000.79,14.0,20.2,,00.0,0645.6,30.5
2021-11-12T23:31:00Z,00000200,01000000,0001.01,0001.27,0000.69,-000.01,0000.15,0000.35,0000.94,0000.77,0000.35,14.0,20.1,,00.0,0645.5,30.5
2021-11-12T23:32:00Z,00000200,01000000,0001.09,0001.12,0000.67,0000.42,0000.21,0000.22,0001.00,0000.62,0000.81,14.0,20.2,,00.0,0645.5,30.5
2021-11-12T23:33:00Z,00000200,01000000,0001.50,0001.07,0000.76,0000.80,0000.08,0000.41,0000.99,0001.35,0000.94,13.9,20.2,,00.0,0645.5,30.5
2021-11-12T23:34:00Z,00000200,01000000,0001.55,0001.19,0000.73,0000.08,0000.11,-000.09,0001.08,0000.77,0000.66,14.0,20.2,,00.0,0645.5,30.5
2021-11-12T23:35:00Z,00000200,01000000,0000.89,0001.06,0000.80,0000.46,-000.11,0000.19,0000.93,0000.66,0000.84,14.0,20.2,,00.0,0645.5,30.5
2021-11-12T23:36:00Z,00000200,01000000,0000.87,0001.11,0000.64,0000.50,0000.24,0000.03,0001.01,0001.03,0000.46,14.0,20.2,,00.0,0645.5,30.5
2021-11-12T23:37:00Z,00000200,01000000,0001.51,0001.37,0000.54,0000.76,0000.21,0000.13,0000.82,0000.96,0000.35,14.0,20.2,,00.0,0645.5,30.5
2021-11-12T23:38:00Z,00000200,01000000,0001.26,0001.01,0000.63,0000.09,0000.27,0000.01,0000.88,0001.07,0001.18,14.0,20.2,,00.0,0645.5,30.5
2021-11-12T23:39:00Z,00000200,01000000,0001.13,0001.22,0000.94,0000.22,0000.42,0000.20,0001.27,0000.63,0000.31,14.0,20.2,,00.0,0645.5,30.5
2021-11-12T23:40:00Z,00000200,01000000,0001.57,0001.38,0000.78,-000.39,0000.31,0000.25,0000.76,0000.81,0000.71,14.0,20.2,,00.0,0645.5,30.5
2021-11-12T23:41:00Z,00000200,01000000,0001.54,0001.63,0000.40,0000.11,0000.22,0000.10,0000.85,0000.95,0000.62,14.0,20.2,,00.0,0645.5,30.5
2021-11-12T23:42:00Z,00000200,01000000,0001.82,0001.66,0000.86,0000.66,0000.26,0000.09,0000.98,0000.96,0000.91,14.0,20.2,,00.0,0645.5,30.5
2021-11-12T23:43:00Z,00000200,01000000,0001.65,0001.36,0000.77,0000.49,0000.06,-000.01,0001.07,0001.02,0000.38,14.0,20.2,,00.0,0645.5,30.5
2021-11-12T23:44:00Z,00000200,01000000,0001.11,0001.33,0000.82,0000.03,0000.42,-000.16,0000.91,0000.81,0000.75,14.0,20.2,,00.0,0645.5,30.5
2021-11-12T23:45:00Z,00000200,01000000,0001.72,0001.15,0000.66,0000.25,0000.16,0000.15,0001.23,0000.94,0000.75,14.0,20.2,,00.0,0645.5,30.5
2021-11-12T23:46:00Z,00000200,01000000,0002.08,0001.07,0000.76,0000.15,0000.36,0000.32,0000.87,0000.67,0000.82,14.0,20.2,,00.0,0645.5,30.5
2021-11-12T23:47:00Z,00000200,01000000,0001.36,0000.91,0000.72,0000.55,0000.36,0000.00,0000.82,0001.09,0000.78,14.1,20.2,,00.0,0645.5,30.5
2021-11-12T23:48:00Z,00000200,01000000,0001.90,0001.05,0000.49,-000.20,0000.30,-000.03,0001.03,0000.76,0000.37,14.1,20.2,,00.0,0645.5,30.5
2021-11-12T23:49:00Z,00000200,01000000,0001.87,0001.24,0000.79,-000.21,-000.02,0000.15,0001.21,0000.98,0000.49,14.1,20.2,,00.0,0645.5,30.5
2021-11-12T23:50:00Z,00000200,01000000,0001.44,0001.26,0000.83,-000.03,0000.21,-000.12,0000.96,0001.01,0000.75,14.0,20.2,,00.0,0645.4,30.5
2021-11-12T23:51:00Z,00000200,01000000,0001.64,0001.56,0000.66,-000.06,0000.33,0000.40,0000.84,0000.61,0000.98,14.1,20.2,,00.0,0645.4,30.5
2021-11-12T23:52:00Z,00000200,01000000,0001.20,0001.27,0000.76,-000.05,0000.24,0000.50,0001.01,0000.89,0000.49,14.1,20.2,,00.0,0645.4,30.5
2021-11-12T23:53:00Z,00000200,01000000,0001.24,0001.54,0000.79,0000.11,0000.39,0000.22,0000.61,0000.81,0000.37,14.1,20.2,,00.0,0645.4,30.5
2021-11-12T23:54:00Z,00000200,01000000,0001.39,0001.44,0000.52,-000.12,0000.23,-000.09,0001.17,0000.64,0000.75,14.1,20.2,,00.0,0645.5,30.5
2021-11-12T23:55:00Z,00000200,01000000,0000.93,0001.27,0000.83,0000.29,0000.25,0000.19,0000.92,0001.11,0000.30,14.1,20.2,,00.0,0645.5,30.5
2021-11-12T23:56:00Z,00000200,01000000,0002.27,0000.88,0000.72,0000.27,0000.12,0000.07,0000.38,0000.56,0000.57,14.1,20.2,,00.0,0645.5,30.5
2021-11-12T23:57:00Z,00000200,41000000,,,,,,,0000.21,-000.00,0000.23,14.1,20.2,,00.0,0645.5,30.5
2021-11-12T23:58:00Z,00000200,61000000,,,,,,,0000.15,-000.04,-000.02,13.8,20.3,,00.0,0644.6,30.5
2021-11-12T23:59:00Z,00000200,21000000,,,,,,,0000.19,0000.29,-000.01,13.8,20.4,,00.0,0644.6,30.5
